{"data":{"norad_id":51962,"intl_designator":"2022-025G","name":"STARLINK-3697","alt_names":[],"object_type":"PAYLOAD","status":"ACTIVE","operator":null,"country":"US","launch_date":"2022-03-09","launch_site_code":"AFETR","launch_vehicle":null,"mission":null,"orbit_class":"UNKNOWN","rcs_meters":null,"size_class":null,"mass_kg":null,"dimensions":null,"purposes":["comms"],"wikipedia_slug":null,"has_3d_model":false,"image_url":null,"decayed_at":null,"tle_current":{"epoch":"2026-05-25T01:20:59.790912Z","epoch_age_seconds":64143,"freshness":"FRESH","line1":"1 51962U 22025G   26145.05624758  .00003999  00000+0  14057-3 0  9998","line2":"2 51962  53.1618  29.1117 0001399 101.6428 258.4730 15.31696048232711","mean_motion":15.31696048,"eccentricity":0.0001399,"inclination_deg":53.1618,"raan_deg":29.1117,"arg_perigee_deg":101.6428,"mean_anomaly_deg":258.473,"bstar":0.00014057,"rev_number":23271,"period_min":94.013430528875,"perigee_km":469.79361641758,"apogee_km":471.70993549709,"semimajor_km":6848.8887759573,"source":"CELESTRAK","updated_at":"2026-05-25T13:38:16.991826Z"}}}